Location: Audinghen
(50.8518°N, 1.6129°E)
Time: 09:32:50
(UTC+00:00)

Cosmos 1655 Rocket - Pass Details

Date: 07 August 2020
Orbit: 970 x 1007 km, 83.0° (Epoch: 20 September)

Event Time Altitude Azimuth Distance (km) Brightness Sun altitude
Rises 02:30:05 0° 348° (NNW) 3,709 7.7 -15.2°
Reaches altitude 10° 02:32:38 10° 346° (NNW) 2,751 6.9 -14.9°
Maximum altitude 02:38:51 65° 266° (W) 1,070 4.0 -14.3°
Enters shadow 02:44:31 12° 187° (S) 2,540 5.7 -13.7°
